Vorticity
5 -14 17 15 1 18 3 12 4 6 1 31 4 -4 16 9 -17 25 9 9 9 2 4 4 0 1 4 4 6 5 6 5 6 5 5 4 3 1 2 4 4 5 4 4 2 4 6 6 7
5 3 -2 12 16 10 0 8 3 20 8 -1 7 -9 5 -22 44 6 0 10 5 5 3 4 6 5 4 8 6 7 5 6 5 5 5 3 3 2 5 4 3 2 4 5 4 6 6 6 6
3 3 11 2 12 1 12 7 11 4 -3 3 1 4 20 40 4 2 2 3 3 2 3 5 6 7 6 7 8 5 5 4 5 6 6 4 4 4 3 3 3 4 5 5 5 6 7 7 7
4 -4 -1 11 12 10 15 4 4 2 2 2 23 25 15 4 3 6 6 5 2 2 2 3 6 7 7 7 4 3 4 5 6 6 4 4 3 3 3 3 4 4 4 5 6 6 6 7 9
4 9 3 7 8 12 9 10 3 3 8 4 24 2 8 4 5 5 5 6 4 2 3 4 4 7 7 5 3 3 6 5 4 3 3 3 3 3 2 3 4 5 6 6 7 6 6 5 9
2 4 2 5 8 7 9 7 2 6 5 13 18 9 5 8 6 5 5 5 3 2 2 4 7 8 7 5 4 5 4 3 1 2 2 2 1 2 3 5 7 6 7 6 6 5 7 5 6
9 1 -2 3 8 5 8 6 3 11 11 12 5 12 8 5 4 2 3 5 4 3 2 4 6 8 8 6 6 5 4 3 2 2 2 2 2 4 2 6 7 5 6 3 3 5 5 5 4
9 4 8 4 4 12 12 2 10 5 5 10 6 10 6 3 4 1 3 4 4 4 3 3 4 5 6 5 3 3 3 3 2 3 4 3 3 3 5 4 5 4 5 2 6 6 7 6 4
4 6 5 3 8 12 3 3 10 9 9 8 6 13 9 4 4 3 3 3 4 4 5 4 4 4 5 5 4 3 4 3 3 3 3 3 3 6 9 5 5 3 6 4 6 9 5 3 1
7 6 4 3 11 10 4 -1 4 12 8 7 7 12 14 4 5 5 5 6 6 4 4 5 5 6 6 6 6 5 5 4 4 4 4 4 3 4 3 6 4 5 4 4 4 5 3 4 2
18 -1 5 2 11 16 4 8 3 9 6 2 10 12 14 6 6 7 6 6 6 6 5 4 4 6 5 5 5 6 5 5 5 5 5 4 5 5 2 5 5 5 4 3 3 2 4 5 3
3 7 9 1 0 19 5 3 18 4 12 -1 8 12 13 11 8 7 5 5 5 5 6 5 6 5 4 4 5 4 5 5 6 5 5 5 6 5 5 5 3 4 5 3 5 4 5 5 6
-0 3 5 7 12 16 13 5 6 2 2 7 9 11 11 10 10 9 6 5 4 4 4 5 5 6 6 6 6 5 4 5 5 6 4 3 5 6 4 6 6 4 4 7 6 7 5 5 6
2 10 4 6 21 14 6 9 0 8 5 3 8 8 9 10 8 7 6 6 6 5 4 4 4 5 5 6 7 7 6 5 5 6 5 4 8 7 5 6 4 4 4 5 7 4 5 7 8
3 5 14 25 13 1 13 0 11 9 -1 5 3 7 7 8 10 9 6 6 6 5 5 5 5 5 6 6 3 3 8 8 8 9 5 5 4 4 4 6 6 5 5 5 6 8 4 9 10
5 7 3 15 7 -1 5 17 19 0 11 6 1 4 5 8 6 7 7 9 7 5 5 4 4 5 7 7 7 7 6 2 7 6 7 6 5 7 5 4 5 4 4 4 7 3 6 9 8
13 2 5 9 7 10 1 16 19 15 5 9 4 2 3 4 5 11 8 6 5 6 7 5 5 5 7 5 2 6 11 8 4 6 6 7 7 5 5 5 5 5 7 5 7 -0 11 8 9
-0 4 17 8 14 -2 9 -17 3 4 13 9 3 3 2 3 4 7 7 8 7 5 8 3 4 3 7 10 5 5 6 7 9 5 6 6 5 5 6 6 8 8 11 5 3 8 8 8 8
3 8 8 0 14 8 4 7 -8 6 3 13 13 6 2 2 4 4 5 5 6 7 10 10 4 7 8 5 5 7 6 10 5 5 4 7 10 9 9 10 9 14 10 9 12 9 9 8 10
-2 7 7 6 5 3 7 8 5 3 8 9 14 15 9 4 3 3 3 4 3 4 6 7 8 6 11 11 5 8 9 7 8 10 10 13 14 14 15 12 11 14 14 14 12 12 12 13 13
2 1 9 -10 0 7 11 3 10 11 10 7 11 14 14 10 5 2 2 2 7 7 6 7 10 13 11 8 9 10 10 12 14 15 14 15 15 14 17 15 14 13 11 11 11 11 11 10 11
5 4 -1 13 -2 2 6 8 3 15 7 6 3 10 19 12 10 7 4 3 3 6 6 6 19 10 9 11 12 11 11 11 10 12 14 13 11 11 10 8 7 5 6 10 12 11 10 10 9
11 4 5 -2 12 -2 19 -0 13 12 9 8 10 9 7 12 15 14 7 5 6 10 6 21 14 8 10 11 11 8 9 10 8 5 4 2 4 3 2 3 4 6 8 6 10 13 12 10 11
16 5 15 12 9 26 -0 -6 10 0 3 9 14 2 18 10 9 13 16 20 18 15 14 16 8 7 9 9 10 10 7 4 6 1 -0 2 3 -2 4 -0 1 5 5 8 8 12 13 13 12
3 9 13 15 26 -4 19 -2 -15 10 17 6 1 26 3 25 6 5 5 10 12 8 14 8 6 6 6 8 9 9 9 8 4 2 3 1 -1 0 0 2 3 3 4 5 9 9 11 10 9
2 -2 -52 14 11 24 -2 17 19 5 5 7 8 20 9 12 18 15 7 8 9 6 9 8 10 5 5 8 9 6 8 6 4 3 -1 -3 1 1 3 3 2 2 4 4 5 8 9 10 9
12 8 2 -14 18 3 17 8 15 5 -1 6 9 3 13 19 11 10 19 5 8 6 8 6 4 3 4 5 3 5 3 5 3 -2 -2 -1 0 2 2 3 4 5 4 5 5 7 5 9 9
-7 8 7 7 7 0 23 3 0 20 11 17 14 3 6 19 6 17 11 19 9 10 3 -0 2 8 4 6 2 2 3 6 0 -3 -2 -0 -0 3 3 1 -1 1 4 7 6 7 7 7 6
11 5 16 -0 0 -20 7 28 -5 -1 -4 -10 6 4 15 4 21 16 8 12 21 6 8 6 8 7 13 12 11 6 3 5 2 3 -0 2 -4 5 -1 -3 -9 18 1 4 6 10 8 8 7
-6 13 11 -8 32 20 -27 17 27 31 10 25 19 8 8 4 13 18 24 6 12 24 3 -1 11 5 3 6 9 10 13 12 9 5 -1 10 -5 6 -6 -6 6 5 -4 5 3 9 9 7 6
Height
3173 3173 3170 3169 3173 3170 3171 3175 3175 3176 3176 3173 3173 3174 3175 3175 3179 3183 3180 3183 3184 3186 3188 3189 3191 3193 3196 3198 3200 3202 3204 3206 3208 3210 3213 3215 3216 3217 3218 3218 3218 3219 3219 3219 3218 3217 3217 3216 3215
3175 3174 3174 3172 3173 3170 3175 3177 3178 3178 3176 3176 3175 3177 3179 3178 3178 3180 3183 3185 3188 3190 3192 3194 3196 3197 3199 3201 3203 3205 3207 3209 3211 3213 3214 3216 3218 3219 3219 3220 3220 3220 3220 3219 3219 3219 3218 3216 3215
3175 3176 3178 3177 3175 3173 3177 3179 3179 3178 3178 3179 3179 3179 3180 3180 3182 3184 3188 3189 3191 3193 3195 3197 3199 3200 3202 3204 3206 3207 3210 3212 3214 3215 3216 3218 3219 3220 3221 3221 3221 3221 3221 3220 3219 3219 3218 3217 3216
3177 3178 3180 3180 3179 3180 3180 3181 3181 3181 3181 3181 3180 3181 3182 3184 3187 3189 3190 3192 3193 3195 3197 3199 3201 3203 3204 3207 3209 3210 3212 3214 3216 3217 3219 3220 3221 3222 3222 3222 3222 3222 3221 3221 3220 3220 3218 3218 3217
3179 3181 3181 3181 3182 3182 3182 3182 3184 3185 3183 3183 3184 3184 3185 3187 3189 3191 3192 3194 3196 3198 3200 3201 3203 3205 3207 3209 3211 3213 3215 3217 3219 3220 3221 3222 3223 3223 3223 3223 3223 3222 3221 3221 3221 3220 3219 3218 3218
3184 3181 3180 3182 3184 3184 3184 3184 3185 3185 3184 3184 3186 3187 3188 3190 3192 3193 3195 3196 3199 3201 3203 3205 3206 3208 3210 3212 3214 3216 3218 3219 3220 3221 3223 3223 3224 3224 3224 3224 3223 3222 3221 3221 3221 3220 3220 3219 3219
3185 3184 3184 3183 3185 3186 3186 3185 3186 3186 3185 3187 3188 3189 3190 3191 3193 3195 3197 3199 3201 3203 3205 3207 3209 3210 3213 3214 3216 3217 3219 3220 3221 3222 3224 3224 3224 3224 3224 3224 3223 3223 3223 3221 3221 3220 3220 3220 3220
3184 3184 3185 3184 3183 3186 3185 3186 3186 3187 3187 3187 3189 3191 3192 3192 3194 3196 3198 3200 3203 3204 3207 3209 3210 3211 3213 3215 3216 3218 3220 3221 3222 3223 3224 3224 3225 3225 3224 3224 3224 3224 3223 3223 3222 3221 3221 3220 3220
3183 3183 3182 3183 3183 3185 3185 3186 3185 3186 3186 3188 3190 3191 3193 3194 3195 3197 3199 3202 3204 3205 3208 3210 3211 3213 3215 3216 3218 3219 3221 3222 3223 3224 3225 3225 3225 3225 3225 3225 3225 3225 3224 3223 3222 3222 3220 3220 3219
3183 3181 3183 3185 3185 3185 3185 3188 3186 3187 3187 3188 3189 3191 3192 3194 3196 3199 3201 3203 3205 3207 3208 3210 3212 3214 3215 3216 3218 3220 3221 3222 3223 3224 3225 3225 3225 3225 3225 3225 3225 3224 3224 3223 3222 3221 3220 3218 3218
3182 3181 3184 3185 3185 3185 3184 3186 3187 3188 3189 3189 3190 3190 3192 3195 3197 3200 3203 3205 3207 3208 3209 3211 3213 3214 3215 3216 3218 3219 3220 3222 3223 3224 3224 3225 3225 3225 3225 3225 3224 3224 3224 3223 3221 3220 3219 3218 3217
3180 3182 3183 3184 3183 3185 3185 3186 3187 3188 3191 3190 3190 3191 3193 3195 3197 3200 3202 3204 3206 3208 3209 3211 3212 3213 3214 3216 3217 3219 3220 3221 3222 3223 3224 3224 3224 3224 3224 3224 3223 3223 3222 3221 3221 3219 3217 3216 3216
3178 3180 3181 3182 3181 3184 3186 3186 3187 3188 3189 3189 3190 3191 3192 3195 3198 3200 3203 3204 3206 3207 3209 3210 3211 3213 3214 3216 3217 3218 3219 3220 3221 3222 3222 3223 3223 3223 3223 3223 3222 3221 3221 3219 3218 3217 3216 3214 3212
3177 3178 3178 3179 3180 3181 3184 3185 3186 3187 3188 3189 3190 3191 3192 3194 3197 3199 3200 3202 3204 3206 3208 3209 3211 3212 3213 3215 3216 3217 3218 3219 3220 3221 3221 3221 3221 3221 3221 3221 3220 3220 3218 3218 3217 3216 3214 3212 3210
3175 3176 3175 3175 3177 3179 3182 3183 3183 3185 3186 3188 3189 3190 3192 3194 3195 3197 3200 3201 3203 3205 3206 3208 3209 3210 3212 3213 3214 3215 3216 3217 3218 3219 3219 3220 3219 3219 3220 3219 3218 3217 3216 3216 3215 3214 3211 3209 3207
3172 3174 3173 3173 3174 3176 3180 3179 3181 3182 3184 3187 3188 3189 3191 3193 3194 3196 3198 3200 3202 3203 3204 3206 3207 3208 3210 3211 3212 3213 3215 3216 3217 3217 3217 3218 3218 3218 3218 3217 3217 3216 3215 3214 3213 3211 3208 3205 3203
3167 3166 3168 3171 3172 3173 3178 3179 3179 3180 3182 3184 3186 3187 3189 3191 3193 3194 3196 3197 3199 3200 3202 3204 3205 3206 3208 3209 3210 3211 3212 3214 3215 3215 3216 3217 3216 3216 3215 3215 3214 3213 3213 3211 3210 3208 3205 3203 3201
3160 3164 3163 3167 3169 3172 3175 3178 3177 3177 3180 3183 3183 3185 3186 3188 3191 3192 3193 3194 3196 3197 3199 3201 3202 3203 3205 3206 3207 3208 3210 3211 3212 3213 3213 3213 3212 3213 3212 3212 3212 3211 3210 3208 3207 3205 3202 3200 3198
3158 3160 3161 3164 3167 3170 3172 3174 3176 3174 3177 3180 3180 3181 3183 3186 3188 3188 3190 3191 3193 3194 3196 3197 3199 3201 3202 3203 3205 3206 3208 3208 3210 3210 3211 3211 3211 3211 3211 3210 3209 3209 3207 3206 3204 3202 3199 3198 3195
3155 3156 3158 3161 3164 3167 3168 3170 3172 3172 3171 3175 3176 3177 3179 3182 3181 3184 3186 3188 3190 3192 3193 3195 3196 3197 3199 3200 3203 3204 3204 3205 3206 3207 3208 3208 3208 3208 3207 3207 3206 3206 3204 3202 3200 3198 3196 3196 3194
3151 3152 3154 3156 3161 3164 3165 3166 3167 3169 3168 3168 3171 3173 3174 3176 3177 3180 3181 3184 3187 3189 3191 3192 3194 3194 3196 3198 3199 3201 3201 3203 3204 3205 3206 3207 3207 3206 3206 3205 3204 3203 3201 3198 3197 3195 3194 3193 3192
3145 3149 3153 3154 3158 3159 3162 3158 3160 3163 3164 3163 3164 3167 3169 3169 3172 3174 3176 3179 3182 3186 3188 3189 3190 3191 3193 3194 3196 3198 3199 3200 3202 3203 3205 3206 3206 3205 3205 3203 3202 3201 3199 3198 3195 3193 3191 3190 3190
3141 3147 3150 3152 3152 3155 3153 3158 3153 3157 3160 3160 3160 3161 3163 3166 3166 3169 3171 3174 3178 3180 3183 3185 3187 3187 3189 3191 3193 3195 3197 3198 3200 3202 3204 3205 3204 3204 3203 3202 3201 3200 3198 3196 3194 3192 3190 3188 3188
3142 3144 3144 3147 3148 3144 3145 3150 3149 3151 3154 3156 3158 3157 3158 3161 3163 3165 3167 3170 3172 3175 3178 3181 3184 3185 3186 3188 3191 3193 3195 3197 3199 3201 3203 3203 3203 3203 3203 3201 3200 3199 3197 3195 3194 3192 3189 3188 3186
3135 3139 3139 3140 3136 3134 3139 3143 3144 3147 3150 3152 3153 3154 3152 3155 3158 3161 3162 3164 3167 3169 3173 3177 3181 3183 3184 3186 3188 3190 3193 3195 3197 3198 3200 3200 3201 3201 3201 3199 3198 3197 3195 3194 3192 3191 3188 3186 3185
3123 3128 3125 3126 3126 3130 3136 3132 3137 3144 3146 3147 3148 3148 3148 3149 3152 3155 3158 3160 3162 3165 3169 3173 3177 3179 3181 3183 3185 3187 3190 3191 3193 3195 3197 3198 3199 3199 3198 3197 3196 3195 3193 3192 3190 3188 3185 3184 3182
3115 3117 3125 3124 3123 3122 3123 3130 3136 3138 3140 3141 3141 3141 3142 3144 3146 3147 3152 3155 3157 3161 3165 3169 3172 3176 3178 3180 3182 3184 3186 3188 3189 3192 3194 3194 3195 3195 3196 3195 3194 3193 3191 3189 3186 3184 3182 3181 3180
3105 3115 3121 3116 3111 3111 3118 3120 3124 3130 3133 3135 3136 3137 3138 3139 3141 3143 3145 3148 3152 3156 3161 3165 3168 3171 3173 3176 3178 3180 3183 3185 3186 3188 3189 3191 3192 3191 3192 3191 3190 3190 3188 3185 3183 3180 3179 3177 3176
3100 3101 3105 3111 3110 3106 3109 3111 3120 3125 3128 3130 3131 3132 3133 3134 3135 3137 3140 3143 3146 3152 3156 3160 3163 3166 3168 3170 3174 3177 3179 3180 3182 3184 3188 3188 3188 3188 3187 3187 3187 3186 3185 3181 3178 3177 3175 3174 3172
3092 3095 3099 3098 3102 3102 3106 3104 3114 3117 3121 3123 3125 3127 3129 3130 3130 3131 3134 3137 3141 3145 3149 3153 3158 3160 3163 3168 3170 3172 3174 3176 3177 3178 3180 3180 3182 3180 3179 3180 3180 3177 3178 3176 3173 3172 3171 3170 3168